Time,TemperatureF,DewpointF,PressureIn,WindDirection,WindDirectionDegrees,WindSpeedMPH,WindSpeedGustMPH,Humidity,HourlyPrecipIn,Conditions,Clouds,dailyrainin,SoftwareType,DateUTC
2013-01-02 08:52:00,22.1,15.1,27.11,North,0,0.0,0.0,74,0.00,,,0.00,VWS V14.01,2013-01-02 16:52:00,
2013-01-02 08:57:00,21.9,14.6,27.11,North,0,0.0,0.0,73,0.00,,,0.00,VWS V14.01,2013-01-02 16:57:00,
2013-01-02 09:02:00,21.9,14.6,27.11,North,0,0.0,0.0,73,0.00,,,0.00,VWS V14.01,2013-01-02 17:02:00,
2013-01-02 09:07:00,22.1,14.8,27.11,North,0,0.0,0.0,73,0.00,,,0.00,VWS V14.01,2013-01-02 17:07:00,
2013-01-02 09:12:00,22.1,14.8,27.11,North,0,0.0,0.0,73,0.00,,,0.00,VWS V14.01,2013-01-02 17:12:00,
2013-01-02 09:16:00,22.3,15.0,27.11,North,0,0.0,0.0,73,0.00,,,0.00,VWS V14.01,2013-01-02 17:16:00,
2013-01-02 09:17:00,22.5,15.1,27.11,North,0,0.0,0.0,73,0.00,,,0.00,VWS V14.01,2013-01-02 17:17:00,
2013-01-02 09:22:00,22.5,15.1,27.11,North,0,0.0,0.0,73,0.00,,,0.00,VWS V14.01,2013-01-02 17:22:00,
2013-01-02 09:28:00,22.6,15.0,27.11,North,0,0.0,0.0,72,0.00,,,0.00,VWS V14.01,2013-01-02 17:28:00,
2013-01-02 09:33:00,22.6,14.3,27.11,North,0,0.0,0.0,70,0.00,,,0.00,VWS V14.01,2013-01-02 17:33:00,
2013-01-02 09:38:00,22.6,14.3,27.11,North,0,0.0,0.0,70,0.00,,,0.00,VWS V14.01,2013-01-02 17:38:00,
2013-01-02 09:43:00,22.8,14.8,27.11,North,0,0.0,0.0,71,0.00,,,0.00,VWS V14.01,2013-01-02 17:43:00,
2013-01-02 09:48:00,23.0,15.0,27.11,North,0,0.0,0.0,71,0.00,,,0.00,VWS V14.01,2013-01-02 17:48:00,
2013-01-02 09:53:00,23.0,15.0,27.11,North,0,0.0,0.0,71,0.00,,,0.00,VWS V14.01,2013-01-02 17:53:00,
2013-01-02 09:58:00,23.4,15.0,27.11,North,0,0.0,0.0,70,0.00,,,0.00,VWS V14.01,2013-01-02 17:58:00,
2013-01-02 10:03:00,23.5,14.9,27.11,North,0,0.0,0.0,69,0.00,,,0.00,VWS V14.01,2013-01-02 18:03:00,
2013-01-02 10:08:00,23.5,14.6,27.11,North,0,0.0,0.0,68,0.00,,,0.00,VWS V14.01,2013-01-02 18:08:00,
2013-01-02 10:13:00,23.7,15.1,27.11,North,0,0.0,0.0,69,0.00,,,0.00,VWS V14.01,2013-01-02 18:13:00,
2013-01-02 10:18:00,23.7,14.7,27.11,North,0,0.0,0.0,68,0.00,,,0.00,VWS V14.01,2013-01-02 18:18:00,
2013-01-02 10:23:00,23.9,14.9,27.11,North,0,0.0,0.0,68,0.00,,,0.00,VWS V14.01,2013-01-02 18:23:00,
2013-01-02 10:28:00,23.9,14.9,27.11,North,0,0.0,0.0,68,0.00,,,0.00,VWS V14.01,2013-01-02 18:28:00,
2013-01-02 10:33:00,23.9,14.9,27.11,North,0,0.0,0.0,68,0.00,,,0.00,VWS V14.01,2013-01-02 18:33:00,
2013-01-02 10:38:00,23.9,14.9,27.11,North,0,0.0,0.0,68,0.00,,,0.00,VWS V14.01,2013-01-02 18:38:00,
2013-01-02 10:43:00,23.9,14.9,27.11,North,0,0.0,0.0,68,0.00,,,0.00,VWS V14.01,2013-01-02 18:43:00,
2013-01-02 10:48:00,23.9,15.2,27.11,North,0,0.0,0.0,69,0.00,,,0.00,VWS V14.01,2013-01-02 18:48:00,
2013-01-02 10:53:00,24.1,15.4,27.11,North,0,0.0,0.0,69,0.00,,,0.00,VWS V14.01,2013-01-02 18:53:00,
2013-01-02 10:58:00,24.3,15.6,27.11,North,0,0.0,0.0,69,0.00,,,0.00,VWS V14.01,2013-01-02 18:58:00,
2013-01-02 11:03:00,24.6,15.6,27.11,North,0,0.0,0.0,68,0.00,,,0.00,VWS V14.01,2013-01-02 19:03:00,
2013-01-02 11:08:00,25.2,16.1,27.11,North,0,0.0,0.0,68,0.00,,,0.00,VWS V14.01,2013-01-02 19:08:00,
2013-01-02 11:13:00,25.2,15.8,27.11,North,0,0.0,0.0,67,0.00,,,0.00,VWS V14.01,2013-01-02 19:13:00,
2013-01-02 11:18:00,25.3,15.2,27.11,North,0,0.0,0.0,65,0.00,,,0.00,VWS V14.01,2013-01-02 19:18:00,
2013-01-02 11:23:00,25.3,15.2,27.11,North,0,0.0,0.0,65,0.00,,,0.00,VWS V14.01,2013-01-02 19:23:00,
2013-01-02 11:28:00,25.5,15.1,27.11,North,0,0.0,0.0,64,0.00,,,0.00,VWS V14.01,2013-01-02 19:28:00,
2013-01-02 11:33:00,25.7,15.2,27.08,North,0,0.0,0.0,64,0.00,,,0.00,VWS V14.01,2013-01-02 19:33:00,
2013-01-02 11:38:00,25.7,14.9,27.08,North,0,0.0,0.0,63,0.00,,,0.00,VWS V14.01,2013-01-02 19:38:00,
2013-01-02 11:43:00,25.7,14.5,27.08,North,0,0.0,0.0,62,0.00,,,0.00,VWS V14.01,2013-01-02 19:43:00,
2013-01-02 11:48:00,25.9,14.7,27.08,North,0,0.0,0.0,62,0.00,,,0.00,VWS V14.01,2013-01-02 19:48:00,
2013-01-02 11:53:00,26.1,14.8,27.08,North,0,0.0,0.0,62,0.00,,,0.00,VWS V14.01,2013-01-02 19:53:00,
2013-01-02 11:58:00,26.4,14.8,27.08,North,0,0.0,0.0,61,0.00,,,0.00,VWS V14.01,2013-01-02 19:58:00,
2013-01-02 12:03:00,26.6,15.0,27.08,North,0,0.0,0.0,61,0.00,,,0.00,VWS V14.01,2013-01-02 20:03:00,
2013-01-02 12:08:00,26.4,12.9,27.08,North,0,0.0,0.0,56,0.00,,,0.00,VWS V14.01,2013-01-02 20:08:00,
2013-01-02 12:13:00,26.6,13.0,27.08,North,0,0.0,0.0,56,0.00,,,0.00,VWS V14.01,2013-01-02 20:13:00,
2013-01-02 12:18:00,26.6,12.6,27.08,North,0,0.0,0.0,55,0.00,,,0.00,VWS V14.01,2013-01-02 20:18:00,
2013-01-02 12:23:00,26.6,12.6,27.08,North,0,0.0,0.0,55,0.00,,,0.00,VWS V14.01,2013-01-02 20:23:00,
2013-01-02 12:28:00,26.8,12.4,27.08,North,0,0.0,0.0,54,0.00,,,0.00,VWS V14.01,2013-01-02 20:28:00,
2013-01-02 12:33:00,26.6,12.6,27.08,North,0,0.0,0.0,55,0.00,,,0.00,VWS V14.01,2013-01-02 20:33:00,
2013-01-02 12:38:00,26.2,11.9,27.08,North,0,0.0,0.0,54,0.00,,,0.00,VWS V14.01,2013-01-02 20:38:00,
2013-01-02 12:43:00,26.2,11.9,27.08,North,0,0.0,0.0,54,0.00,,,0.00,VWS V14.01,2013-01-02 20:43:00,
2013-01-02 12:48:00,26.1,11.7,27.08,North,0,0.0,0.0,54,0.00,,,0.00,VWS V14.01,2013-01-02 20:48:00,
2013-01-02 12:53:00,26.2,11.9,27.08,North,0,0.0,0.0,54,0.00,,,0.00,VWS V14.01,2013-01-02 20:53:00,
2013-01-02 12:58:00,26.4,12.0,27.08,North,0,0.0,0.0,54,0.00,,,0.00,VWS V14.01,2013-01-02 20:58:00,
2013-01-02 13:03:00,26.4,12.0,27.08,North,0,0.0,0.0,54,0.00,,,0.00,VWS V14.01,2013-01-02 21:03:00,
2013-01-02 13:08:00,26.2,11.4,27.08,North,0,0.0,0.0,53,0.00,,,0.00,VWS V14.01,2013-01-02 21:08:00,
2013-01-02 13:13:00,26.1,11.3,27.08,North,0,0.0,0.0,53,0.00,,,0.00,VWS V14.01,2013-01-02 21:13:00,
2013-01-02 13:18:00,26.1,11.3,27.08,North,0,0.0,0.0,53,0.00,,,0.00,VWS V14.01,2013-01-02 21:18:00,
2013-01-02 13:23:00,26.1,10.9,27.08,North,0,0.0,0.0,52,0.00,,,0.00,VWS V14.01,2013-01-02 21:23:00,
2013-01-02 13:28:00,26.2,11.0,27.08,North,0,0.0,0.0,52,0.00,,,0.00,VWS V14.01,2013-01-02 21:28:00,
2013-01-02 13:33:00,26.2,11.0,27.08,North,0,0.0,0.0,52,0.00,,,0.00,VWS V14.01,2013-01-02 21:33:00,
2013-01-02 13:38:00,26.1,10.9,27.08,North,0,0.0,0.0,52,0.00,,,0.00,VWS V14.01,2013-01-02 21:38:00,
2013-01-02 13:43:00,26.2,11.0,27.08,North,0,0.0,0.0,52,0.00,,,0.00,VWS V14.01,2013-01-02 21:43:00,
2013-01-02 13:48:00,26.1,10.9,27.08,North,0,0.0,0.0,52,0.00,,,0.00,VWS V14.01,2013-01-02 21:48:00,
2013-01-02 13:53:00,26.1,10.9,27.08,North,0,0.0,0.0,52,0.00,,,0.00,VWS V14.01,2013-01-02 21:53:00,
2013-01-02 13:58:00,26.1,10.9,27.08,North,0,0.0,0.0,52,0.00,,,0.00,VWS V14.01,2013-01-02 21:58:00,
2013-01-02 14:03:00,25.9,10.7,27.08,North,0,0.0,0.0,52,0.00,,,0.00,VWS V14.01,2013-01-02 22:03:00,
2013-01-02 14:08:00,25.9,10.7,27.08,North,0,0.0,0.0,52,0.00,,,0.00,VWS V14.01,2013-01-02 22:08:00,
2013-01-02 14:13:00,25.9,10.7,27.08,North,0,0.0,0.0,52,0.00,,,0.00,VWS V14.01,2013-01-02 22:13:00,
2013-01-02 14:18:00,25.5,10.4,27.08,North,0,0.0,0.0,52,0.00,,,0.00,VWS V14.01,2013-01-02 22:18:00,
2013-01-02 14:23:00,25.3,10.6,27.08,North,0,0.0,0.0,53,0.00,,,0.00,VWS V14.01,2013-01-02 22:23:00,
2013-01-02 14:28:00,25.2,10.4,27.08,North,0,0.0,0.0,53,0.00,,,0.00,VWS V14.01,2013-01-02 22:28:00,
2013-01-02 14:33:00,25.2,10.9,27.08,North,0,0.0,0.0,54,0.00,,,0.00,VWS V14.01,2013-01-02 22:33:00,
2013-01-02 14:38:00,25.0,10.7,27.08,North,0,0.0,0.0,54,0.00,,,0.00,VWS V14.01,2013-01-02 22:38:00,
2013-01-02 14:43:00,25.0,10.7,27.08,North,0,0.0,0.0,54,0.00,,,0.00,VWS V14.01,2013-01-02 22:43:00,
2013-01-02 14:48:00,25.0,10.7,27.08,North,0,0.0,0.0,54,0.00,,,0.00,VWS V14.01,2013-01-02 22:48:00,
2013-01-02 14:53:00,25.0,10.7,27.08,North,0,0.0,0.0,54,0.00,,,0.00,VWS V14.01,2013-01-02 22:53:00,
2013-01-02 14:58:00,24.8,10.9,27.08,North,0,0.0,0.0,55,0.00,,,0.00,VWS V14.01,2013-01-02 22:58:00,
2013-01-02 15:03:00,25.0,11.1,27.08,North,0,0.0,0.0,55,0.00,,,0.00,VWS V14.01,2013-01-02 23:03:00,
2013-01-02 15:08:00,24.8,10.9,27.08,North,0,0.0,0.0,55,0.00,,,0.00,VWS V14.01,2013-01-02 23:08:00,
2013-01-02 15:13:00,24.6,10.8,27.08,North,0,0.0,0.0,55,0.00,,,0.00,VWS V14.01,2013-01-02 23:13:00,
2013-01-02 15:18:00,24.4,10.6,27.08,North,0,0.0,0.0,55,0.00,,,0.00,VWS V14.01,2013-01-02 23:18:00,
2013-01-02 15:23:00,24.1,10.3,27.08,North,0,0.0,0.0,55,0.00,,,0.00,VWS V14.01,2013-01-02 23:23:00,
2013-01-02 15:28:00,23.9,10.1,27.08,North,0,0.0,0.0,55,0.00,,,0.00,VWS V14.01,2013-01-02 23:28:00,
2013-01-02 15:33:00,23.7,10.3,27.08,North,0,0.0,0.0,56,0.00,,,0.00,VWS V14.01,2013-01-02 23:33:00,
2013-01-02 15:38:00,23.5,10.6,27.08,North,0,0.0,0.0,57,0.00,,,0.00,VWS V14.01,2013-01-02 23:38:00,
2013-01-02 15:43:00,23.5,11.3,27.08,North,0,0.0,0.0,59,0.00,,,0.00,VWS V14.01,2013-01-02 23:43:00,
2013-01-02 15:48:00,23.4,11.5,27.08,North,0,0.0,0.0,60,0.00,,,0.00,VWS V14.01,2013-01-02 23:48:00,
2013-01-02 15:53:00,23.2,11.7,27.08,North,0,0.0,0.0,61,0.00,,,0.00,VWS V14.01,2013-01-02 23:53:00,
2013-01-02 15:58:00,23.2,11.7,27.08,North,0,0.0,0.0,61,0.00,,,0.00,VWS V14.01,2013-01-02 23:58:00,
2013-01-02 16:03:00,23.2,11.4,27.08,North,0,0.0,0.0,60,0.00,,,0.00,VWS V14.01,2013-01-03 00:03:00,
2013-01-02 16:08:00,23.2,11.4,27.08,North,0,0.0,0.0,60,0.00,,,0.00,VWS V14.01,2013-01-03 00:08:00,
2013-01-02 16:13:00,23.2,11.4,27.08,North,0,0.0,0.0,60,0.00,,,0.00,VWS V14.01,2013-01-03 00:13:00,
2013-01-02 16:18:00,23.2,11.4,27.08,North,0,0.0,0.0,60,0.00,,,0.00,VWS V14.01,2013-01-03 00:18:00,
2013-01-02 16:23:00,23.2,11.4,27.08,North,0,0.0,0.0,60,0.00,,,0.00,VWS V14.01,2013-01-03 00:23:00,
2013-01-02 16:28:00,23.0,12.3,27.08,North,0,0.0,0.0,63,0.00,,,0.00,VWS V14.01,2013-01-03 00:28:00,
2013-01-02 16:33:00,22.8,12.5,27.08,North,0,0.0,0.0,64,0.00,,,0.00,VWS V14.01,2013-01-03 00:33:00,
2013-01-02 16:38:00,23.0,12.6,27.08,North,0,0.0,0.0,64,0.00,,,0.00,VWS V14.01,2013-01-03 00:38:00,
2013-01-02 16:43:00,23.0,12.3,27.08,North,0,0.0,0.0,63,0.00,,,0.00,VWS V14.01,2013-01-03 00:43:00,
2013-01-02 16:48:00,23.0,12.3,27.08,North,0,0.0,0.0,63,0.00,,,0.00,VWS V14.01,2013-01-03 00:48:00,
2013-01-02 16:53:00,23.2,12.1,27.08,North,0,0.0,0.0,62,0.00,,,0.00,VWS V14.01,2013-01-03 00:53:00,
2013-01-02 16:58:00,23.2,11.7,27.08,North,0,0.0,0.0,61,0.00,,,0.00,VWS V14.01,2013-01-03 00:58:00,
2013-01-02 17:03:00,23.2,11.7,27.08,North,0,0.0,0.0,61,0.00,,,0.00,VWS V14.01,2013-01-03 01:03:00,
2013-01-02 17:08:00,23.2,11.7,27.08,North,0,0.0,0.0,61,0.00,,,0.00,VWS V14.01,2013-01-03 01:08:00,
2013-01-02 17:13:00,23.2,11.7,27.08,North,0,0.0,0.0,61,0.00,,,0.00,VWS V14.01,2013-01-03 01:13:00,
2013-01-02 17:18:00,23.2,11.7,27.11,North,0,0.0,0.0,61,0.00,,,0.00,VWS V14.01,2013-01-03 01:18:00,
2013-01-02 17:23:00,23.4,11.9,27.11,North,0,0.0,0.0,61,0.00,,,0.00,VWS V14.01,2013-01-03 01:23:00,
2013-01-02 17:28:00,23.4,11.2,27.11,North,0,0.0,0.0,59,0.00,,,0.00,VWS V14.01,2013-01-03 01:28:00,
2013-01-02 17:33:00,23.5,11.3,27.08,North,0,0.0,0.0,59,0.00,,,0.00,VWS V14.01,2013-01-03 01:33:00,
2013-01-02 17:38:00,23.4,11.2,27.08,North,0,0.0,0.0,59,0.00,,,0.00,VWS V14.01,2013-01-03 01:38:00,
2013-01-02 17:43:00,23.5,10.9,27.08,North,0,0.0,0.0,58,0.00,,,0.00,VWS V14.01,2013-01-03 01:43:00,
2013-01-02 17:48:00,23.4,11.2,27.08,North,0,0.0,0.0,59,0.00,,,0.00,VWS V14.01,2013-01-03 01:48:00,
2013-01-02 17:53:00,23.2,11.4,27.08,North,0,0.0,0.0,60,0.00,,,0.00,VWS V14.01,2013-01-03 01:53:00,
2013-01-02 17:58:00,23.4,11.2,27.08,North,0,0.0,0.0,59,0.00,,,0.00,VWS V14.01,2013-01-03 01:58:00,
2013-01-02 18:03:00,23.2,11.0,27.08,North,0,0.0,0.0,59,0.00,,,0.00,VWS V14.01,2013-01-03 02:03:00,
2013-01-02 18:08:00,23.2,11.4,27.08,North,0,0.0,0.0,60,0.00,,,0.00,VWS V14.01,2013-01-03 02:08:00,
2013-01-02 18:13:00,23.2,11.0,27.08,North,0,0.0,0.0,59,0.00,,,0.00,VWS V14.01,2013-01-03 02:13:00,
2013-01-02 18:18:00,23.0,11.2,27.08,North,0,0.0,0.0,60,0.00,,,0.00,VWS V14.01,2013-01-03 02:18:00,
2013-01-02 18:23:00,23.0,11.2,27.08,North,0,0.0,0.0,60,0.00,,,0.00,VWS V14.01,2013-01-03 02:23:00,
2013-01-02 18:28:00,22.8,11.0,27.08,North,0,0.0,0.0,60,0.00,,,0.00,VWS V14.01,2013-01-03 02:28:00,
2013-01-02 18:33:00,22.8,11.4,27.08,North,0,0.0,0.0,61,0.00,,,0.00,VWS V14.01,2013-01-03 02:33:00,
2013-01-02 18:38:00,22.8,11.4,27.08,North,0,0.0,0.0,61,0.00,,,0.00,VWS V14.01,2013-01-03 02:38:00,
2013-01-02 18:43:00,22.8,11.4,27.08,North,0,0.0,0.0,61,0.00,,,0.00,VWS V14.01,2013-01-03 02:43:00,
2013-01-02 18:48:00,22.6,11.6,27.08,North,0,0.0,0.0,62,0.00,,,0.00,VWS V14.01,2013-01-03 02:48:00,
2013-01-02 18:53:00,22.5,11.4,27.08,North,0,0.0,0.0,62,0.00,,,0.00,VWS V14.01,2013-01-03 02:53:00,
2013-01-02 18:58:00,21.9,10.6,27.08,North,0,0.0,0.0,61,0.00,,,0.00,VWS V14.01,2013-01-03 02:58:00,
2013-01-02 19:03:00,21.9,10.9,27.08,North,0,0.0,0.0,62,0.00,,,0.00,VWS V14.01,2013-01-03 03:03:00,
2013-01-02 19:08:00,22.1,11.4,27.08,North,0,0.0,0.0,63,0.00,,,0.00,VWS V14.01,2013-01-03 03:08:00,
2013-01-02 19:13:00,22.3,12.0,27.08,North,0,0.0,0.0,64,0.00,,,0.00,VWS V14.01,2013-01-03 03:13:00,
2013-01-02 19:18:00,22.5,12.5,27.08,North,0,0.0,0.0,65,0.00,,,0.00,VWS V14.01,2013-01-03 03:18:00,
2013-01-02 19:23:00,22.1,13.2,27.08,North,0,0.0,0.0,68,0.00,,,0.00,VWS V14.01,2013-01-03 03:23:00,
2013-01-02 19:28:00,21.9,12.7,27.08,North,0,0.0,0.0,67,0.00,,,0.00,VWS V14.01,2013-01-03 03:28:00,
2013-01-02 19:33:00,21.7,12.5,27.08,North,0,0.0,0.0,67,0.00,,,0.00,VWS V14.01,2013-01-03 03:33:00,
2013-01-02 19:38:00,21.6,12.6,27.08,North,0,0.0,0.0,68,0.00,,,0.00,VWS V14.01,2013-01-03 03:38:00,
2013-01-02 19:44:00,21.7,12.5,27.08,North,0,0.0,0.0,67,0.00,,,0.00,VWS V14.01,2013-01-03 03:44:00,
2013-01-02 19:48:00,21.7,12.5,27.08,North,0,0.0,0.0,67,0.00,,,0.00,VWS V14.01,2013-01-03 03:48:00,
2013-01-02 19:53:00,21.6,12.3,27.08,North,0,0.0,0.0,67,0.00,,,0.00,VWS V14.01,2013-01-03 03:53:00,
2013-01-02 19:58:00,21.6,12.3,27.08,North,0,0.0,0.0,67,0.00,,,0.00,VWS V14.01,2013-01-03 03:58:00,
2013-01-02 20:03:00,21.6,13.6,27.08,North,0,0.0,0.0,71,0.00,,,0.00,VWS V14.01,2013-01-03 04:03:00,
2013-01-02 20:08:00,21.6,13.6,27.08,North,0,0.0,0.0,71,0.00,,,0.00,VWS V14.01,2013-01-03 04:08:00,
2013-01-02 20:13:00,21.6,13.6,27.08,North,0,0.0,0.0,71,0.00,,,0.00,VWS V14.01,2013-01-03 04:13:00,
2013-01-02 20:18:00,21.6,13.6,27.08,North,0,0.0,0.0,71,0.00,,,0.00,VWS V14.01,2013-01-03 04:18:00,
2013-01-02 20:23:00,21.6,13.3,27.08,North,0,0.0,0.0,70,0.00,,,0.00,VWS V14.01,2013-01-03 04:23:00,
2013-01-02 20:28:00,21.2,13.0,27.08,North,0,0.0,0.0,70,0.00,,,0.00,VWS V14.01,2013-01-03 04:28:00,
2013-01-02 20:33:00,21.2,13.6,27.08,North,0,0.0,0.0,72,0.00,,,0.00,VWS V14.01,2013-01-03 04:33:00,
2013-01-02 20:38:00,21.2,13.3,27.08,North,0,0.0,0.0,71,0.00,,,0.00,VWS V14.01,2013-01-03 04:38:00,
2013-01-02 20:43:00,21.0,12.8,27.08,North,0,0.0,0.0,70,0.00,,,0.00,VWS V14.01,2013-01-03 04:43:00,
2013-01-02 20:48:00,20.7,12.4,27.08,North,0,0.0,0.0,70,0.00,,,0.00,VWS V14.01,2013-01-03 04:48:00,
2013-01-02 20:53:00,20.7,12.4,27.08,North,0,0.0,0.0,70,0.00,,,0.00,VWS V14.01,2013-01-03 04:53:00,
2013-01-02 20:58:00,20.5,12.3,27.08,North,0,0.0,0.0,70,0.00,,,0.00,VWS V14.01,2013-01-03 04:58:00,
2013-01-02 21:00:00,20.5,12.3,27.05,North,0,0.0,0.0,70,0.00,,,0.00,VWS V14.01,2013-01-03 05:00:00,
2013-01-02 21:01:00,20.5,11.9,27.05,North,0,0.0,0.0,69,0.00,,,0.00,VWS V14.01,2013-01-03 05:01:00,
2013-01-02 21:02:00,20.3,11.8,27.05,North,0,0.0,0.0,69,0.00,,,0.00,VWS V14.01,2013-01-03 05:02:00,
2013-01-02 21:07:00,20.5,12.9,27.05,North,0,0.0,0.0,72,0.00,,,0.00,VWS V14.01,2013-01-03 05:07:00,
2013-01-02 21:12:00,20.3,13.0,27.05,North,0,0.0,0.0,73,0.00,,,0.00,VWS V14.01,2013-01-03 05:12:00,
2013-01-02 21:17:00,20.3,13.0,27.05,North,0,0.0,0.0,73,0.00,,,0.00,VWS V14.01,2013-01-03 05:17:00,
2013-01-02 21:22:00,20.3,12.7,27.05,North,0,0.0,0.0,72,0.00,,,0.00,VWS V14.01,2013-01-03 05:22:00,
2013-01-02 21:27:00,20.3,12.7,27.05,North,0,0.0,0.0,72,0.00,,,0.00,VWS V14.01,2013-01-03 05:27:00,
2013-01-02 21:32:00,20.1,12.6,27.05,North,0,0.0,0.0,72,0.00,,,0.00,VWS V14.01,2013-01-03 05:32:00,
2013-01-02 21:37:00,19.9,13.0,27.05,North,0,0.0,0.0,74,0.00,,,0.00,VWS V14.01,2013-01-03 05:37:00,
2013-01-02 21:42:00,19.8,13.1,27.05,North,0,0.0,0.0,75,0.00,,,0.00,VWS V14.01,2013-01-03 05:42:00,
2013-01-02 21:47:00,19.6,13.0,27.05,North,0,0.0,0.0,75,0.00,,,0.00,VWS V14.01,2013-01-03 05:47:00,
2013-01-02 21:52:00,19.6,13.0,27.05,North,0,0.0,0.0,75,0.00,,,0.00,VWS V14.01,2013-01-03 05:52:00,
2013-01-02 21:57:00,19.4,12.8,27.05,North,0,0.0,0.0,75,0.00,,,0.00,VWS V14.01,2013-01-03 05:57:00,
2013-01-02 22:02:00,19.2,12.3,27.08,North,0,0.0,0.0,74,0.00,,,0.00,VWS V14.01,2013-01-03 06:02:00,
2013-01-02 22:07:00,19.0,11.8,27.08,North,0,0.0,0.0,73,0.00,,,0.00,VWS V14.01,2013-01-03 06:07:00,
2013-01-02 22:12:00,18.9,11.6,27.08,North,0,0.0,0.0,73,0.00,,,0.00,VWS V14.01,2013-01-03 06:12:00,
2013-01-02 22:17:00,18.7,11.5,27.05,North,0,0.0,0.0,73,0.00,,,0.00,VWS V14.01,2013-01-03 06:17:00,
2013-01-02 22:22:00,18.5,11.3,27.05,North,0,0.0,0.0,73,0.00,,,0.00,VWS V14.01,2013-01-03 06:22:00,
2013-01-02 22:27:00,18.3,11.1,27.05,North,0,0.0,0.0,73,0.00,,,0.00,VWS V14.01,2013-01-03 06:27:00,
2013-01-02 22:32:00,18.1,11.0,27.05,North,0,0.0,0.0,73,0.00,,,0.00,VWS V14.01,2013-01-03 06:32:00,
2013-01-02 22:37:00,18.0,10.8,27.05,North,0,0.0,0.0,73,0.00,,,0.00,VWS V14.01,2013-01-03 06:37:00,
2013-01-02 22:42:00,17.8,10.6,27.05,North,0,0.0,0.0,73,0.00,,,0.00,VWS V14.01,2013-01-03 06:42:00,
2013-01-02 22:47:00,17.6,10.4,27.05,North,0,0.0,0.0,73,0.00,,,0.00,VWS V14.01,2013-01-03 06:47:00,
2013-01-02 22:52:00,17.4,10.3,27.05,North,0,0.0,0.0,73,0.00,,,0.00,VWS V14.01,2013-01-03 06:52:00,
2013-01-02 22:57:00,17.4,10.3,27.05,North,0,0.0,0.0,73,0.00,,,0.00,VWS V14.01,2013-01-03 06:57:00,
2013-01-02 23:02:00,17.4,10.3,27.05,North,0,0.0,0.0,73,0.00,,,0.00,VWS V14.01,2013-01-03 07:02:00,
2013-01-02 23:07:00,17.4,10.6,27.05,North,0,0.0,0.0,74,0.00,,,0.00,VWS V14.01,2013-01-03 07:07:00,
2013-01-02 23:12:00,17.4,10.6,27.05,North,0,0.0,0.0,74,0.00,,,0.00,VWS V14.01,2013-01-03 07:12:00,
2013-01-02 23:17:00,17.2,10.4,27.05,North,0,0.0,0.0,74,0.00,,,0.00,VWS V14.01,2013-01-03 07:17:00,
2013-01-02 23:22:00,17.1,9.9,27.05,North,0,0.0,0.0,73,0.00,,,0.00,VWS V14.01,2013-01-03 07:22:00,
2013-01-02 23:27:00,16.9,9.7,27.05,North,0,0.0,0.0,73,0.00,,,0.00,VWS V14.01,2013-01-03 07:27:00,
2013-01-02 23:32:00,16.7,9.6,27.05,North,0,0.0,0.0,73,0.00,,,0.00,VWS V14.01,2013-01-03 07:32:00,
2013-01-02 23:37:00,16.5,9.4,27.05,North,0,0.0,0.0,73,0.00,,,0.00,VWS V14.01,2013-01-03 07:37:00,
2013-01-02 23:42:00,16.2,9.0,27.05,North,0,0.0,0.0,73,0.00,,,0.00,VWS V14.01,2013-01-03 07:42:00,
2013-01-02 23:47:00,16.0,8.9,27.05,North,0,0.0,0.0,73,0.00,,,0.00,VWS V14.01,2013-01-03 07:47:00,
2013-01-02 23:52:00,15.8,9.0,27.05,North,0,0.0,0.0,74,0.00,,,0.00,VWS V14.01,2013-01-03 07:52:00,
2013-01-02 23:57:00,15.8,9.3,27.05,North,0,0.0,0.0,75,0.00,,,0.00,VWS V14.01,2013-01-03 07:57:00,